Weather History for El Centro, CA

Change the Weather History Date:

Friday, October 4, 2013

  Actual Average Record
Temperature  
Mean Temperature 72 °F -  
Max Temperature 87 °F 94 °F 102 °F (1996)
Min Temperature 57 °F 66 °F 57 °F (2002)
Cooling Degree Days 6    
Growing Degree Days 22 (Base 50)    
Moisture  
Dew Point 29 °F    
Average Humidity 25    
Maximum Humidity 54    
Minimum Humidity 6    
Precipitation  
Precipitation 0.00 in - - ()
Sea Level Pressure  
Sea Level Pressure 30.00 in    
Wind  
Wind Speed 7 mph (NNW)    
Max Wind Speed 20 mph    
Max Gust Speed 23 mph    
Visibility 10 miles    
Events      
Averages and records for this station are not official NWS values.
T = Trace of Precipitation, MM = Missing Value Source: NWS Daily Summary

Daily Weather History Graph

Daily Weather History Graph

Search for Another Location

Airport:

Trip Planner

Search our weather history database for the weather conditions in past years. The results will help you decide how hot, cold, wet, or windy it might be!

Date:

Astronomy

Oct. 04, 2013 Rise Set
Actual Time 6:39 AM PDT 6:22 PM PDT
Civil Twilight 6:14 AM PDT 6:47 PM PDT
Nautical Twilight 5:45 AM PDT 7:16 PM PDT
Astronomical Twilight 5:17 AM PDT 7:44 PM PDT
Moon 6:18 AM PDT (10/4) 6:10 PM PDT (10/4)
Length of Visible Light 12h 33m
Length of Day
11h 43m
Waning Crescent, 0% of the Moon is Illuminated
Oct 4
Waning Crescent
Oct 4
New
Oct 11
First Quarter
Oct 18
Full
Oct 26
Last Quarter

Hourly Weather History & Observations

Time (PDT) Temp. Dew Point Humidity Pressure Visibility Wind Dir Wind Speed Gust Speed Precip Events Conditions
12:56 AM 68.0 °F 43.0 °F 40% 29.82 in 10.0 mi West 6.9 mph - N/A   Clear
1:56 AM 69.1 °F 44.1 °F 40% 29.84 in 10.0 mi NNW 5.8 mph - N/A   Clear
2:56 AM 64.9 °F 48.0 °F 54% 29.85 in 10.0 mi Calm Calm - N/A   Clear
3:56 AM 66.9 °F 48.0 °F 51% 29.87 in 10.0 mi Calm Calm - N/A   Clear
4:56 AM 64.0 °F 44.1 °F 48% 29.90 in 10.0 mi Calm Calm - N/A   Clear
5:56 AM 61.0 °F 42.1 °F 50% 29.94 in 10.0 mi West 3.5 mph - N/A   Clear
6:56 AM 57.9 °F 37.0 °F 46% 29.97 in 10.0 mi NNW 3.5 mph - N/A   Clear
7:56 AM 68.0 °F 32.0 °F 26% 30.00 in 10.0 mi North 9.2 mph - N/A   Clear
8:56 AM 75.9 °F 26.1 °F 16% 30.04 in 10.0 mi North 11.5 mph - N/A   Clear
9:56 AM 80.1 °F 21.0 °F 11% 30.05 in 10.0 mi North 19.6 mph - N/A   Clear
10:56 AM 81.0 °F 17.1 °F 9% 30.06 in 10.0 mi NNE 13.8 mph - N/A   Clear
11:56 AM 82.9 °F 18.0 °F 9% 30.06 in 10.0 mi NNW 13.8 mph 23.0 mph N/A   Clear
12:56 PM 84.0 °F 16.0 °F 8% 30.04 in 10.0 mi North 13.8 mph - N/A   Clear
1:56 PM 84.9 °F 16.0 °F 8% 30.02 in 10.0 mi NNW 9.2 mph 23.0 mph N/A   Clear
2:56 PM 86.0 °F 12.0 °F 6% 30.01 in 10.0 mi NNW 9.2 mph 19.6 mph N/A   Clear
3:56 PM 86.0 °F 12.9 °F 7% 30.01 in 10.0 mi North 15.0 mph 21.9 mph N/A   Clear
4:56 PM 86.0 °F 12.0 °F 6% 30.01 in 10.0 mi NNW 17.3 mph - N/A   Clear
5:56 PM 82.9 °F 17.1 °F 9% 30.02 in 10.0 mi North 13.8 mph - N/A   Clear
6:56 PM 75.0 °F 25.0 °F 16% 30.03 in 10.0 mi NNW 6.9 mph - N/A   Clear
7:56 PM 72.0 °F 32.0 °F 23% 30.05 in 10.0 mi NNW 10.4 mph - N/A   Clear
8:56 PM 69.1 °F 37.0 °F 31% 30.08 in 10.0 mi NNW 5.8 mph - N/A   Clear
9:56 PM 68.0 °F 35.1 °F 30% 30.11 in 10.0 mi North 5.8 mph - N/A   Clear
10:56 PM 64.9 °F 25.0 °F 22% 30.12 in 10.0 mi North 6.9 mph - N/A   Clear
11:56 PM 64.9 °F 30.9 °F 28% 30.13 in 10.0 mi NW 8.1 mph - N/A   Clear